Regional Weather Roundup
Issued by NWS

Home | Current Version | Previous Version | Graphics & Text | Print | Product List | Glossary On
Versions: 1 2 3 4 5 6 7 8 9 10 11 12 13 14 15 16 17 18 19 20 21 22 23 24 25 26 27 28 29 30 31 32 33 34 35 36 37 38 39 40 41 42 43 44 45 46 47 48 49 50
000
ASUS45 KTFX 222110
RWRMT
MONTANA REGIONAL WEATHER ROUNDUP
NATIONAL WEATHER SERVICE GREAT FALLS MT
200 PM MST SUN JAN 22 2017

NOTE: "FAIR" INDICATES FEW OR NO CLOUDS BELOW 12000 FEET WITH NO
SIGNIFICANT WEATHER AND/OR OBSTRUCTIONS TO VISIBILITY.

MTZ001>007-043-222200-
WEST OF THE DIVIDE

CITY           SKY/WX    TMP DP  RH WIND       PRES   REMARKS
KALISPELL      MOSUNNY   34  26  72 CALM      29.68F
MISSOULA       MOSUNNY   24  20  84 NE3       29.66F
BUTTE          MOSUNNY   21  13  71 SW5       29.67F
MULLAN PASS    PTSUNNY   25  22  88 SE9G17    29.55F WCI  15
ANACONDA         N/A     34  16  47 E13G22    29.65F WCI  25
DEER LODGE       N/A     37  19  48 S6        29.68F
EUREKA           N/A     30  25  80 CALM      29.73F
HAMILTON         N/A     25  19  80 NE3       29.65F
RONAN            N/A     28  26  92 CALM      29.74F VSB 0
$$

MTZ008-052>055-222200-
SOUTHWEST MONTANA

CITY           SKY/WX    TMP DP  RH WIND       PRES   REMARKS
BOZEMAN        SUNNY     24  17  74 SE7       29.73F WCI  16
DILLON         CLOUDY   N/A N/A N/A CALM      29.69F
W YELLOWSTONE  CLOUDY    27  19  74 S8        29.75F WCI  18
ENNIS          SUNNY     32  21  64 S21G28    29.74F WCI  20
TWIN BRIDGES     N/A     26  14  60 E2        29.73F
$$

MTZ009-010-012-014-046-048-049-054-222200-
EAST SLOPES AND CENTRAL MONTANA

CITY           SKY/WX    TMP DP  RH WIND       PRES   REMARKS
CUT BANK       CLOUDY    24  23  96 NE3       29.75F FOG
GREAT FALLS    SUNNY     34  24  67 E7        29.73F WCI  28
MALMSTROM AFB  SUNNY     31  26  84 NE9       29.74F WCI  22
HELENA         SUNNY     22  14  71 CALM      29.74F
AUGUSTA          N/A     32  21  64 SE6       29.69F WCI  27
BOWMANS CRNR     N/A     33  20  61 S8        29.68F WCI  25
CHOTEAU          N/A     25  25 100 NE9       29.74F FOG     WCI  15
CONRAD           N/A     25  25 100 CALM      29.80F VSB 0
POWER            N/A     27  24  88 NE8       29.73F WCI  18
RAYNESFORD       N/A     39  19  45 E3        29.72F
ULM              N/A     36  26  66 MISG      29.72F
$$

MTZ011-013-016-021-045-047-050-051-222200-
NORTH CENTRAL MONTANA

CITY           SKY/WX    TMP DP  RH WIND       PRES   REMARKS
HAVRE          CLOUDY    29  27  92 VRB3      29.82F
LEWISTOWN      SUNNY     39  21  48 CALM      29.74F
CHINOOK          N/A     30  27  86 SW6       29.82F WCI  24
DENTON           N/A     27  27  99 NE7       29.73F WCI  20
FORT BENTON      N/A     28  25  86 MISG      29.81F
GEYSER           N/A     33  25  75 E6        29.73F WCI  27
GRASS RANGE      N/A     31  26  83 E12       29.74S WCI  21
JUDITH GAP       N/A     37  17  45 SW17G24   29.72F WCI  27
ROY            PTSUNNY   26  24  94 MISG      29.77F FOG
STANFORD         N/A     33  26  74 E5        29.72F
WINIFRED       PTSUNNY   28  27  99 NE8       29.76F FOG     WCI  19
$$

MTZ017>020-022>027-061-062-222200-
NORTHEAST MONTANA

CITY           SKY/WX    TMP DP  RH WIND       PRES   REMARKS
GLASGOW        CLOUDY    30  26  85 W7        29.81F WCI  23
JORDAN           N/A     31  25  78 NW10      29.82F WCI  22
SIDNEY         CLOUDY    31  26  82 W12       29.83S WCI  22
WOLF POINT     CLOUDY    33  25  72 W9        29.83F WCI  25
PLENTYWOOD       N/A    N/A N/A N/A W17       29.77S
POPLAR           N/A     30  27  86 W14       29.83S WCI  20
SCOBEY           N/A     28  17  63 W16       29.78S WCI  16
$$

MTZ028>42-056>058-222200-
SOUTHCENTRAL AND SOUTHEAST MONTANA

CITY           SKY/WX    TMP DP  RH WIND       PRES   REMARKS
BAKER          CLOUDY    24  22  91 NW12      29.82S FOG     WCI  13
BILLINGS       MOSUNNY   35  21  56 SW7       29.78F WCI  29
LIVINGSTON     SUNNY     43  16  33 SW22      29.70F
MILES CITY     CLOUDY    24  20  84 S6        29.85S FOG     WCI  17
BIG TIMBER     SUNNY     41  16  36 SE10G17   29.75F
EKALAKA          N/A     28  19  69 SW8       29.81R WCI  20
FORSYTH          N/A     25  21  86 NE3       29.84F
HARLOWTON        N/A     39  16  38 CALM      29.73F
LAUREL           N/A     35  18  50 CALM      29.79F
ROUNDUP          N/A     43  17  35 SW5       29.71F
$$

REGIONAL REPORTS...DAKOTAS

CITY           SKY/WX    TMP DP  RH WIND       PRES   REMARKS
WILLISTON      CLOUDY    31  27  85 W13       29.80S WCI  21
MINOT          CLOUDY    34  29  82 W9        29.74F WCI  27
DICKINSON      CLOUDY    27  23  85 NW20      29.77F WCI  13
BEACH          CLOUDY    27  27 100 W18       29.83S WCI  13
CROSBY         CLOUDY    28  28 100 W15       29.78R WCI  17
TIOGA          CLOUDY    28  28 100 W15       29.77S WCI  17
WATFORD CITY   CLOUDY    30  27  86 W14G20    29.80S WCI  20
BISMARCK       CLOUDY    33  29  85 W13       29.80R WCI  24
GRAND FORKS    CLOUDY    34  28  79 W9        29.73S HAZE    WCI  27
FARGO          CLOUDY    36  32  85 W6        29.75R FOG     WCI  31
BUFFALO SD       N/A     31  25  78 NW9       29.75R WCI  23
RAPID CITY     SUNNY     39  25  57 S7        29.83S
$$

REGIONAL REPORTS...WYOMING/IDAHO/WASHINGTON

CITY           SKY/WX    TMP DP  RH WIND       PRES   REMARKS
GILLETTE       SUNNY     40  22  48 SW6       29.83S
SHERIDAN       SUNNY     38  23  55 SE12      29.80F WCI  30
BUFFALO WY     SUNNY     33  21  61 E7        29.80F WCI  27
CODY           SUNNY     28  17  63 NE7       29.77F WCI  21
YELLOWSTONE LA   N/A     23  16  74 VRB3      29.76F
IDAHO FALLS    CLOUDY    28  24  85 N5        29.78F
SALMON         CLOUDY    18  12  79 CALM      29.71F
BOISE          CLOUDY    39  29  67 SE17      29.61S WCI  30
SPOKANE        CLOUDY    39  30  70 NE8       29.56F
$$

REGIONAL REPORTS...ALBERTA

CITY           SKY/WX    TMP DP  RH WIND       PRES   REMARKS
EDMONTON       CLOUDY    16   9  73 NE2       29.91F
CALGARY        CLOUDY    23  21  93 E6        29.78F FOG     WCI  16
LETHBRIDGE     CLOUDY    27  25  93 S2        29.80F FOG
MEDICINE HAT   LGT SNOW  27  25  93 N8        29.82F FOG     WCI  18
WATERTON GATE    N/A     27  23  86 E3          N/A
CARDSTON         N/A     25  23  93 N5          N/A
MILK RIVER       N/A     27  25  93 SW1         N/A
$$

REGIONAL REPORTS...SASKATCHEWAN

CITY           SKY/WX    TMP DP  RH WIND       PRES   REMARKS
SWIFT CURRENT  CLOUDY    23  21  93 NW13      29.76S WCI  11
REGINA         FLURRIES  28  23  80 NW15      29.74S WCI  17
SASKATOON      LGT SNOW  21  16  79 N12       29.81S DRFTSNOWWCI   9
CYPRESS HILLS    N/A     25  21  86 W3          N/A
ROCKGLEN         N/A     25  23  93 NW10        N/A  WCI  15
$$



USA.gov is the U.S. government's official web portal to all federal, state and local government web resources and services.